Retour au catalogue

STARLINK-34349

ActifCommunicationsVLEO
NORAD 64215·PAYLOAD·🇺🇸 United States

Lancé May 31, 2025 depuis Vandenberg Space Force Base

Loading…

Prochains Passages (prochaines 24 heures)

TLE

FraisSource: CelesTrak SupGP

Époque: Sep 15, 2026, 04:01 UTC

1 64215C 25117N   26258.16784722 -.00047273  00000+0 -13968-2 0  2585
2 64215  53.1578 236.3699 0001573  86.4670 132.9532 15.34412073    10

Suivez STARLINK-34349 en temps réel avec AllMySat

Download on the App Store